Charter Quote
Worldwide +44-20-3874-8091 Call
Select Language Lang
SAFETY RELIABILITY EXPERIENCE

Hyakuri Airport (RJAH) - Jet Charter Services

AIRPORT INFORMATION
ICAORJAH
LOCATIONTsuchiura, Japan
FACILITY TYPEAIRPORT
Runway Length (ft) Width (ft) Surface Type Elevation (ft)
21/03 8860 150 CON 104.91803

At Paramount Business Jets you can hire chartered private jets to and from Hyakuri Airport with as little as 4 hours of notice. All flights booked via Paramount Business Jets are operated by certified direct air carriers that meet and exceed the FAA part 135 and 121 protocol or a foreign equivalent safety authority. Furthermore, Paramount Business Jets subscribes to ARGUS for their third party safety checks of operators, aircraft, and crews prior each and every flight to and from Hyakuri Airport and worldwide.

  • Quote a trip using Hyakuri Airport or call us 24/7 - 365 days a year at +44-20-3874-8091.
Questions? Call +44-20-3874-8091

METAR Weather Data at Hyakuri Airport, RJAH

STATIONRJAH
OBSERVEDThu Jun 20, 23:00 UTC
NOWThu Jun 20, 23:11 UTC
AGE11 min ago
WINDESE at 6 mph
VISIBILITY10 miles
CLOUDSmostly cloudy
TEMP70°F (21°C)
DEWPT66°F (19°C)
HUMIDITY88%
BAROMETER1010 hPa (29.83 in Hg)
METARRJAH 202300Z 11005KT 6000 FEW006 BKN008 BKN010 21/19 Q1010

Call us on +44-20-3874-8091 (24 Hours) to Hire a Private Jet or Get a Quick Quote.

Find Airports Near any Location

Processing
...